Weather Roundup
Issued by NWS Chicago, IL

Home | Current Version | Previous Version | Graphics & Text | Print | Product List | Glossary On
Versions: 1 2 3 4 5 6 7 8 9 10 11 12 13 14 15 16 17 18 19 20 21 22 23 24 25 26 27 28 29 30 31 32 33 34 35 36 37 38 39 40 41 42 43 44 45 46 47 48 49 50
000
NZUS59 KLOT 290300
HRRLOT

CHICAGO AREA WEATHER ROUNDUP
NATIONAL WEATHER SERVICE CHICAGO/ROMEOVILLE IL
900 PM CST WED JAN 28 2015

NOTE: "FAIR" INDICATES FEW OR NO CLOUDS BELOW 12,000 FEET WITH NO
SIGNIFICANT WEATHER AND/OR OBSTRUCTIONS TO VISIBILITY.

* THESE STATIONS ARE NOT UNDER NWS QUALITY CONTROL. THEY ALSO MAY NOT
  REPORT WEATHER SUCH AS PRECIPITATION OR FOG.

ILZ005-006-012>014-019>023-290400-
NORTHEAST ILLINOIS

CITY           SKY/WX    TMP DP  RH WIND       PRES   REMARKS
OHARE          CLOUDY    32  20  61 S16G23    29.91S WCI  21
MIDWAY         CLOUDY    35  20  54 S16G23    29.92F WCI  25
AURORA         MOCLDY    34  22  61 S18G25    29.90S WCI  23
WAUKEGAN       CLOUDY    31  21  66 S9        29.92R WCI  23
DUPAGE AIRPORT MOCLDY    32  22  66 S18       29.90S WCI  20
WHEELING       MOCLDY    32  20  61 S12       29.94S WCI  23
NORTHERLY IS     N/A     33  19  56 S14         N/A  WCI  23
$$

WIZ051-052-058>065-066-070>072-290400-
SOUTHEAST WISCONSIN

CITY           SKY/WX    TMP DP  RH WIND       PRES   REMARKS
MILWAUKEE      CLOUDY    32  21  64 S15G23    29.92S WCI  22
KENOSHA*       CLOUDY    31  23  72 S7        29.93R WCI  24
RACINE*        CLOUDY    32  22  66 S16G25    29.95R WCI  21
WAUKESHA       CLOUDY    28  21  74 SE9       29.91S WCI  20
$$

INZ001>003-010>013-019-020-290400-
NORTHWEST INDIANA

CITY           SKY/WX    TMP DP  RH WIND       PRES   REMARKS
GARY*          NOT AVBL
MICHIGAN CITY* NOT AVBL
RENSSELAER*    NOT AVBL
$$

LMZ740>746-290400-
SOUTHERN LAKE MICHIGAN

STATION/POSITION TIME  SKY/WX   TEMP WIND        PRES    VSBY
                                AIR  DIR/SP/G
                 (UTC)          (F)  (DEG/KT/KT) (MB)    (MI)
HARRISON CRIB    0200            33  160/ 24/ 31   N/A
BURNHAM HARBOR   0300            34  170/ 11/ 20   N/A
CALUMET HARBOR   0200            34  150/ 12/ 19   N/A
BURNS HARBOR     NOT AVBL
MICHIGAN CITY    0200            31  130/ 18/ 22   N/A
$$

ABBREVIATIONS USED IN REMARKS
   TC - TEMPERATURE IN CELSIUS
  WCI - WIND CHILL INDEX
   HX - HEAT INDEX
  VSB - VISIBILITY
$$


USA.gov is the U.S. government's official web portal to all federal, state and local government web resources and services.